EW1689 Weather Reports


Display with metric or nautical units.
time (UTC)temp
F
wind
direction
speed
MPH
gust
MPH
rain 1hr
in
rain 24hr
in
rain mn
in
humidity
%
barometer
mb
20260504151016 71 0 4.0 12.0 0.00 0.00 0.00 43 1011.4
20260504141015 70 0 2.0 6.0 0.00 0.00 0.00 46 1011.2
20260504081016 75 0 4.0 8.0 0.00 0.00 0.00 35 1010.2
20260504050016 79 0 1.0 4.0 0.00 0.00 0.00 23 1010.0
20260504045016 79 0 2.0 5.0 0.00 0.00 0.00 22 1009.9
20260504044016 79 0 1.0 5.0 0.00 0.00 0.00 23 1009.7
20260504043016 80 0 3.0 6.0 0.00 0.00 0.00 22 1009.7
20260504042016 80 0 2.0 7.0 0.00 0.00 0.00 22 1009.5
20260504041016 80 0 3.0 11.0 0.00 0.00 0.00 21 1009.2
20260504040016 81 0 4.0 10.0 0.00 0.00 0.00 21 1009.2
20260504035016 81 0 3.0 12.0 0.00 0.00 0.00 20 1008.8
20260504034016 81 0 3.0 9.0 0.00 0.00 0.00 19 1008.6
20260504033016 82 0 4.0 12.0 0.00 0.00 0.00 19 1008.3
20260504032016 82 0 3.0 11.0 0.00 0.00 0.00 18 1008.2
20260504031016 83 0 3.0 7.0 0.00 0.00 0.00 17 1008.0
20260504030015 83 0 4.0 15.0 0.00 0.00 0.00 17 1007.7
20260504025015 83 0 3.0 9.0 0.00 0.00 0.00 18 1007.7
20260504024035 83 0 1.0 3.0 0.00 0.00 0.00 19 1007.4
20260504023015 84 0 3.0 6.0 0.00 0.00 0.00 18 1007.1
20260504022016 84 0 2.0 8.0 0.00 0.00 0.00 18 1006.8
20260504021038 85 0 2.0 5.0 0.00 0.00 0.00 17 1006.6
20260504020018 85 0 3.0 7.0 0.00 0.00 0.00 17 1006.4
20260504015017 86 0 1.0 4.0 0.00 0.00 0.00 16 1006.3
20260504014017 87 0 1.0 3.0 0.00 0.00 0.00 16 1006.1
20260504013017 87 0 2.0 4.0 0.00 0.00 0.00 15 1006.1
20260504012057 88 0 2.0 7.0 0.00 0.00 0.00 15 1006.3
20260504011017 89 0 1.0 5.0 0.00 0.00 0.00 15 1006.3
20260504010017 90 0 4.0 9.0 0.00 0.00 0.00 13 1006.3
20260504005018 90 0 2.0 6.0 0.00 0.00 0.00 14 1006.3
20260504004017 90 0 5.0 14.0 0.00 0.00 0.00 14 1006.3
20260504003017 91 0 2.0 9.0 0.00 0.00 0.00 13 1006.3
20260504002017 90 0 5.0 12.0 0.00 0.00 0.00 13 1006.4
20260504001017 90 0 5.0 12.0 0.00 0.00 0.00 14 1006.4
20260504000017 91 0 4.0 10.0 0.00 0.00 0.00 15 1006.6
20260503235017 91 0 5.0 8.0 0.00 0.00 0.00 15 1006.6
20260503234017 91 0 5.0 14.0 0.00 0.00 0.00 14 1006.8
20260503233017 92 0 4.0 8.0 0.00 0.00 0.00 14 1007.0
20260503232017 91 0 4.0 9.0 0.00 0.00 0.00 14 1006.9
20260503231018 91 0 4.0 9.0 0.00 0.00 0.00 15 1007.2
20260503230017 92 0 4.0 12.0 0.00 0.00 0.00 14 1007.4
20260503225017 91 0 3.0 7.0 0.00 0.00 0.00 14 1007.6
20260503224017 91 0 5.0 11.0 0.00 0.00 0.00 15 1007.9
20260503223017 91 0 3.0 7.0 0.00 0.00 0.00 16 1008.0
20260503222017 92 0 5.0 12.0 0.00 0.00 0.00 16 1008.3
20260503221017 92 0 2.0 6.0 0.00 0.00 0.00 16 1008.4
20260503220017 91 0 4.0 10.0 0.00 0.00 0.00 16 1008.5
20260503215017 91 0 5.0 11.0 0.00 0.00 0.00 16 1008.7
20260503214017 91 0 5.0 10.0 0.00 0.00 0.00 16 1008.8
20260503213037 92 0 5.0 15.0 0.00 0.00 0.00 16 1008.8
20260503212037 91 0 4.0 10.0 0.00 0.00 0.00 17 1009.1
20260503211017 91 0 4.0 10.0 0.00 0.00 0.00 17 1009.2
20260503210017 91 0 4.0 13.0 0.00 0.00 0.00 19 1009.4
20260503205016 91 0 3.0 8.0 0.00 0.00 0.00 19 1009.5
20260503204017 90 0 5.0 10.0 0.00 0.00 0.00 19 1009.6
20260503203016 90 0 5.0 12.0 0.00 0.00 0.00 19 1009.7
20260503202016 90 0 3.0 8.0 0.00 0.00 0.00 20 1009.9
20260503201016 90 0 4.0 9.0 0.00 0.00 0.00 20 1010.1
20260503200017 90 0 3.0 8.0 0.00 0.00 0.00 21 1010.2
20260503195016 90 0 3.0 9.0 0.00 0.00 0.00 20 1010.3
20260503194017 90 0 4.0 8.0 0.00 0.00 0.00 20 1010.6
20260503193016 90 0 4.0 9.0 0.00 0.00 0.00 19 1010.7
20260503192017 89 0 4.0 8.0 0.00 0.00 0.00 20 1010.7
20260503191017 88 0 2.0 6.0 0.00 0.00 0.00 20 1010.8
20260503190016 89 0 5.0 9.0 0.00 0.00 0.00 19 1011.0
20260503185036 88 0 3.0 7.0 0.00 0.00 0.00 21 1011.1
20260503184017 88 0 2.0 4.0 0.00 0.00 0.00 21 1011.2
20260503183016 87 0 4.0 9.0 0.00 0.00 0.00 21 1011.3
20260503182016 87 0 3.0 8.0 0.00 0.00 0.00 22 1011.4
20260503181017 85 0 1.0 4.0 0.00 0.00 0.00 26 1011.5
20260503180016 84 0 2.0 6.0 0.00 0.00 0.00 26 1011.6
20260503175017 84 0 3.0 9.0 0.00 0.00 0.00 26 1011.6
20260503174036 83 0 2.0 6.0 0.00 0.00 0.00 28 1011.9
20260503173017 83 0 1.0 4.0 0.00 0.00 0.00 28 1012.0
20260503172016 83 0 2.0 5.0 0.00 0.00 0.00 28 1012.0
20260503171036 83 0 3.0 6.0 0.00 0.00 0.00 28 1012.0